Quesnel,

12:32 PM PDT on August 17, 2017 (GMT -0700)
Quesnel

Weather History for CYQZ - October, 2012

Change the Weather History Date:

Tuesday, October 9, 2012

  Actual Average Record
Temperature  
Mean Temperature 48 °F -  
Max Temperature 69 °F 44 °F 71 °F (2015)
Min Temperature 28 °F 28 °F 23 °F (2006)
Degree Days  
Heating Degree Days 16    
Moisture  
Dew Point 32 °F    
Average Humidity 86    
Maximum Humidity 100    
Minimum Humidity 31    
Precipitation  
Precipitation 0.00 in - - ()
Sea Level Pressure  
Sea Level Pressure 30.10 in    
Wind  
Wind Speed 1 mph ()    
Max Wind Speed 10 mph    
Max Gust Speed -    
Visibility 5.8 miles    
Events Fog    
Averages and records for this station are not official NWS values.
T = Trace of Precipitation, MM = Missing Value Source: Averaged Metar Reports

Daily Weather History Graph

Daily Weather History Graph

Search for Another Location

Airport or City:

Trip Planner

Search our weather history database for the weather conditions in past years. The results will help you decide how hot, cold, wet, or windy it might be!

Date:

Astronomy

Oct. 09, 2012 Rise Set
Actual Time 7:26 AM PDT 6:26 PM PDT
Civil Twilight 6:52 AM PDT 7:01 PM PDT
Nautical Twilight 6:12 AM PDT 7:41 PM PDT
Astronomical Twilight 5:31 AM PDT 8:21 PM PDT
Moon 12:21 AM PDT (10/9) 3:39 PM PDT (10/9)
Length of Visible Light 12h 09m
Length of Day
10h 59m
Waning Crescent, 35% of the Moon is Illuminated
Oct 9
Waning Crescent
Oct 15
New
Oct 21
First Quarter
Oct 29
Full
Nov 6
Last Quarter

Hourly Weather History & Observations

Time (PDT) Temp. Windchill Dew Point Humidity Pressure Visibility Wind Dir Wind Speed Gust Speed Precip Events Conditions
1:00 AM 33.8 °F - 32.0 °F 93% 30.12 in 9.0 mi Calm Calm - N/A   Clear
2:00 AM 33.8 °F - 32.0 °F 93% 30.13 in 9.0 mi Calm Calm - N/A   Clear
3:00 AM 33.8 °F - 32.0 °F 93% 30.12 in 9.0 mi Calm Calm - N/A   Clear
4:00 AM 32.0 °F - 30.2 °F 93% 30.12 in 9.0 mi Calm Calm - N/A   Clear
5:00 AM 32.0 °F - 30.2 °F 93% 30.13 in 9.0 mi Calm Calm - N/A   Clear
5:59 AM 30.2 °F - 30.2 °F 100% 30.13 in 2.2 mi Calm Calm - N/A   Clear
6:00 AM 30.2 °F - 28.4 °F 93% 30.14 in 1.5 mi Calm Calm - N/A   Clear
6:10 AM 30.2 °F - 30.2 °F 100% 30.14 in 3.0 mi Variable 2.3 mph - N/A   Clear
6:12 AM 30.2 °F - 30.2 °F 100% 30.14 in 8.0 mi West 2.3 mph - N/A   Clear
6:48 AM 28.4 °F - 28.4 °F 100% 30.14 in 5.0 mi Calm Calm - N/A   Clear
6:58 AM 28.4 °F - 28.4 °F 100% 30.14 in 9.0 mi Calm Calm - N/A   Clear
7:00 AM 28.4 °F - 28.4 °F 100% 30.15 in 9.0 mi Calm Calm - N/A   Clear
7:08 AM 28.4 °F - 28.4 °F 100% 30.15 in 9.0 mi Calm Calm - N/A   Partly Cloudy
7:26 AM 28.4 °F - 28.4 °F 100% 30.14 in 7.0 mi Calm Calm - N/A   Mostly Cloudy
7:29 AM 28.4 °F - 28.4 °F 100% 30.14 in 4.0 mi Calm Calm - N/A   Mostly Cloudy
7:32 AM 28.4 °F - 28.4 °F 100% 30.15 in 0.4 mi Calm Calm - N/A Fog Light Freezing Fog
8:00 AM 30.2 °F - 30.2 °F 100% 30.15 in 0.4 mi Calm Calm - N/A Fog Light Freezing Fog
8:02 AM 30.2 °F - 30.2 °F 100% 30.15 in 0.8 mi Calm Calm - N/A   Mostly Cloudy
8:06 AM 30.2 °F - 28.4 °F 93% 30.15 in 4.0 mi Calm Calm - N/A   Mostly Cloudy
8:07 AM 30.2 °F - 28.4 °F 93% 30.15 in 9.0 mi Calm Calm - N/A   Mostly Cloudy
8:10 AM 28.4 °F - 28.4 °F 100% 30.15 in 9.0 mi Calm Calm - N/A   Scattered Clouds
8:18 AM 28.4 °F - 28.4 °F 100% 30.16 in 0.8 mi Variable 2.3 mph - N/A   Mostly Cloudy
8:19 AM 28.4 °F - 28.4 °F 100% 30.16 in 0.5 mi NNW 2.3 mph - N/A Fog Light Freezing Fog
8:24 AM 30.2 °F - 30.2 °F 100% 30.16 in 0.2 mi Variable 2.3 mph - N/A Fog Light Freezing Fog
8:30 AM 28.4 °F - 28.4 °F 100% 30.15 in 0.8 mi Variable 2.3 mph - N/A   Scattered Clouds
8:31 AM 28.4 °F - 28.4 °F 100% 30.15 in 1.0 mi Variable 2.3 mph - N/A   Mostly Cloudy
8:34 AM 30.2 °F - 30.2 °F 100% 30.15 in 0.5 mi Calm Calm - N/A Fog Light Freezing Fog
8:46 AM 30.2 °F - 30.2 °F 100% 30.16 in 0.4 mi Variable 2.3 mph - N/A Fog Light Freezing Fog
8:48 AM 30.2 °F - 30.2 °F 100% 30.15 in 0.8 mi Calm Calm - N/A   Scattered Clouds
8:53 AM 30.2 °F - 30.2 °F 100% 30.15 in 4.0 mi Calm Calm - N/A   Scattered Clouds
8:54 AM 30.2 °F - 30.2 °F 100% 30.15 in 6.0 mi Calm Calm - N/A   Scattered Clouds
8:56 AM 30.2 °F - 30.2 °F 100% 30.15 in 5.0 mi Calm Calm - N/A   Partly Cloudy
9:00 AM 32.0 °F - 32.0 °F 100% 30.16 in 3.0 mi Calm Calm - N/A   Partly Cloudy
9:08 AM 33.8 °F - 32.0 °F 93% 30.16 in 8.0 mi Calm Calm - N/A   Clear
10:00 AM 39.2 °F 37.0 °F 35.6 °F 87% 30.15 in 8.0 mi SSW 3.5 mph - N/A   Clear
11:00 AM 44.6 °F - 37.4 °F 76% 30.12 in 7.0 mi Variable 2.3 mph - N/A   Clear
12:00 PM 53.6 °F - 37.4 °F 54% 30.08 in 9.0 mi South 6.9 mph - N/A   Clear
1:00 PM 59.0 °F - 37.4 °F 45% 30.04 in 9.0 mi SSE 6.9 mph - N/A   Clear
2:00 PM 62.6 °F - 37.4 °F 39% 29.99 in 9.0 mi SSE 9.2 mph - N/A   Clear
3:00 PM 68.0 °F - 39.2 °F 35% 29.95 in 9.0 mi South 10.4 mph - N/A   Clear
4:00 PM 69.8 °F - 37.4 °F 31% 29.92 in 9.0 mi SE 8.1 mph - N/A   Clear
5:00 PM 69.8 °F - 37.4 °F 31% 29.90 in 9.0 mi SE 6.9 mph - N/A   Clear
6:00 PM 68.0 °F - 37.4 °F 33% 29.89 in 9.0 mi ESE 6.9 mph - N/A   Clear
7:00 PM 55.4 °F - 39.2 °F 54% 29.90 in 9.0 mi Variable 2.3 mph - N/A   Clear
8:00 PM 51.8 °F - 39.2 °F 62% 29.91 in 9.0 mi Calm Calm - N/A   Clear
9:00 PM 50.0 °F - 39.2 °F 66% 29.92 in 9.0 mi Calm Calm - N/A   Clear
10:00 PM 42.8 °F - 37.4 °F 81% 29.94 in 9.0 mi North 2.3 mph - N/A   Clear
11:00 PM 41.0 °F - 35.6 °F 81% 29.94 in 9.0 mi Calm Calm - N/A   Clear